Time,TemperatureF,DewpointF,PressureIn,WindDirection,WindDirectionDegrees,WindSpeedMPH,WindSpeedGustMPH,Humidity,HourlyPrecipIn,Conditions,Clouds,dailyrainin,SoftwareType,DateUTC
2013-02-21 00:07:00,63.7,63.0,29.81,SW,226,0.0,11.0,96,0.00,,,0.00,weatherlink.com 1.10,2013-02-21 06:07:00,
2013-02-21 00:22:00,63.9,63.0,29.80,SSW,192,4.0,9.0,96,0.00,,,0.00,weatherlink.com 1.10,2013-02-21 06:22:00,
2013-02-21 00:37:00,64.2,63.0,29.79,WSW,249,3.0,10.0,96,0.00,,,0.00,weatherlink.com 1.10,2013-02-21 06:37:00,
2013-02-21 00:52:00,64.6,64.0,29.79,SSW,197,4.0,11.0,96,0.00,,,0.00,weatherlink.com 1.10,2013-02-21 06:52:00,
2013-02-21 01:08:00,65.2,64.0,29.78,SW,226,6.0,11.0,96,0.00,,,0.00,weatherlink.com 1.10,2013-02-21 07:08:00,
2013-02-21 01:23:00,65.4,64.0,29.77,South,171,5.0,10.0,95,0.00,,,0.00,weatherlink.com 1.10,2013-02-21 07:23:00,
2013-02-21 01:38:00,65.8,64.0,29.77,ESE,114,6.0,14.0,95,0.00,,,0.00,weatherlink.com 1.10,2013-02-21 07:38:00,
2013-02-21 01:53:00,66.0,65.0,29.77,South,188,4.0,11.0,95,0.00,,,0.00,weatherlink.com 1.10,2013-02-21 07:53:00,
2013-02-21 02:08:00,66.2,65.0,29.76,SSW,192,8.0,12.0,95,0.00,,,0.00,weatherlink.com 1.10,2013-02-21 08:08:00,
2013-02-21 02:23:00,66.1,65.0,29.76,SW,216,2.0,10.0,95,0.00,,,0.00,weatherlink.com 1.10,2013-02-21 08:23:00,
2013-02-21 02:38:00,66.1,65.0,29.76,South,174,8.0,9.0,95,0.00,,,0.00,weatherlink.com 1.10,2013-02-21 08:38:00,
2013-02-21 02:53:00,66.2,65.0,29.76,SSW,211,6.0,12.0,95,0.00,,,0.00,weatherlink.com 1.10,2013-02-21 08:53:00,
2013-02-21 03:08:00,66.1,65.0,29.75,SW,223,2.0,11.0,95,0.00,,,0.00,weatherlink.com 1.10,2013-02-21 09:08:00,
2013-02-21 03:23:00,66.2,65.0,29.75,SW,232,4.0,10.0,95,0.00,,,0.00,weatherlink.com 1.10,2013-02-21 09:23:00,
2013-02-21 03:38:00,66.7,65.0,29.74,West,261,6.0,11.0,95,0.00,,,0.00,weatherlink.com 1.10,2013-02-21 09:38:00,
2013-02-21 03:53:00,66.8,65.0,29.74,North,8,3.0,12.0,95,0.00,,,0.00,weatherlink.com 1.10,2013-02-21 09:53:00,
2013-02-21 04:08:00,66.9,66.0,29.73,SW,227,5.0,11.0,95,0.00,,,0.00,weatherlink.com 1.10,2013-02-21 10:08:00,
2013-02-21 04:23:00,67.1,66.0,29.73,SSW,195,3.0,13.0,95,0.00,,,0.00,weatherlink.com 1.10,2013-02-21 10:23:00,
2013-02-21 04:38:00,67.0,66.0,29.73,SSW,196,6.0,9.0,96,0.01,,,0.01,weatherlink.com 1.10,2013-02-21 10:38:00,
2013-02-21 04:53:00,67.2,66.0,29.71,SW,220,4.0,16.0,96,0.01,,,0.01,weatherlink.com 1.10,2013-02-21 10:53:00,
2013-02-21 05:08:00,67.6,67.0,29.73,South,190,6.0,15.0,96,0.01,,,0.01,weatherlink.com 1.10,2013-02-21 11:08:00,
2013-02-21 05:23:00,67.5,66.0,29.73,SSW,197,4.0,10.0,96,0.01,,,0.01,weatherlink.com 1.10,2013-02-21 11:23:00,
2013-02-21 05:39:00,67.5,66.0,29.72,SSW,198,7.0,12.0,96,0.01,,,0.02,weatherlink.com 1.10,2013-02-21 11:39:00,
2013-02-21 05:53:00,67.5,66.0,29.73,SSW,192,4.0,13.0,96,0.01,,,0.02,weatherlink.com 1.10,2013-02-21 11:53:00,
2013-02-21 06:08:00,67.7,67.0,29.73,South,178,2.0,9.0,96,0.01,,,0.02,weatherlink.com 1.10,2013-02-21 12:08:00,
2013-02-21 06:23:00,68.1,67.0,29.73,South,173,7.0,14.0,96,0.01,,,0.02,weatherlink.com 1.10,2013-02-21 12:23:00,
2013-02-21 06:38:00,68.3,67.0,29.73,SSW,198,5.0,12.0,96,0.00,,,0.02,weatherlink.com 1.10,2013-02-21 12:38:00,
2013-02-21 06:53:00,68.2,67.0,29.74,SSW,208,6.0,14.0,95,0.00,,,0.02,weatherlink.com 1.10,2013-02-21 12:53:00,
2013-02-21 07:08:00,68.3,67.0,29.75,SW,215,1.0,11.0,95,0.00,,,0.02,weatherlink.com 1.10,2013-02-21 13:08:00,
2013-02-21 07:23:00,68.5,67.0,29.75,SW,226,6.0,10.0,96,0.00,,,0.02,weatherlink.com 1.10,2013-02-21 13:23:00,
2013-02-21 07:38:00,68.6,67.0,29.75,South,184,5.0,13.0,95,0.00,,,0.02,weatherlink.com 1.10,2013-02-21 13:38:00,
2013-02-21 07:53:00,68.5,67.0,29.76,SSE,152,2.0,10.0,96,0.00,,,0.02,weatherlink.com 1.10,2013-02-21 13:53:00,
2013-02-21 08:08:00,68.5,67.0,29.77,South,175,2.0,9.0,96,0.00,,,0.02,weatherlink.com 1.10,2013-02-21 14:08:00,
2013-02-21 08:23:00,68.5,67.0,29.77,SW,223,0.0,6.0,96,0.01,,,0.03,weatherlink.com 1.10,2013-02-21 14:23:00,
2013-02-21 08:38:00,68.5,67.0,29.77,SSE,161,4.0,9.0,96,0.01,,,0.03,weatherlink.com 1.10,2013-02-21 14:38:00,
2013-02-21 08:53:00,68.7,68.0,29.77,South,182,7.0,8.0,96,0.01,,,0.03,weatherlink.com 1.10,2013-02-21 14:53:00,
2013-02-21 09:08:00,68.8,68.0,29.77,South,175,5.0,6.0,96,0.01,,,0.03,weatherlink.com 1.10,2013-02-21 15:08:00,
2013-02-21 09:23:00,69.1,68.0,29.77,SW,230,1.0,8.0,95,0.00,,,0.03,weatherlink.com 1.10,2013-02-21 15:23:00,
2013-02-21 09:38:00,69.2,68.0,29.77,SW,216,3.0,11.0,96,0.01,,,0.04,weatherlink.com 1.10,2013-02-21 15:38:00,
2013-02-21 09:53:00,69.4,68.0,29.77,West,265,4.0,10.0,95,0.01,,,0.04,weatherlink.com 1.10,2013-02-21 15:53:00,
2013-02-21 10:08:00,69.6,69.0,29.76,WSW,256,3.0,9.0,96,0.02,,,0.05,weatherlink.com 1.10,2013-02-21 16:08:00,
2013-02-21 10:23:00,69.9,69.0,29.75,South,173,8.0,12.0,96,0.03,,,0.06,weatherlink.com 1.10,2013-02-21 16:23:00,
2013-02-21 10:38:00,70.2,69.0,29.75,SW,226,3.0,12.0,95,0.02,,,0.06,weatherlink.com 1.10,2013-02-21 16:38:00,
2013-02-21 11:08:00,71.5,69.0,29.75,WNW,293,9.0,14.0,93,0.01,,,0.06,weatherlink.com 1.10,2013-02-21 17:08:00,
2013-02-21 11:23:00,71.8,70.0,29.75,SW,216,5.0,12.0,93,0.00,,,0.06,weatherlink.com 1.10,2013-02-21 17:23:00,
2013-02-21 11:39:00,71.7,70.0,29.75,SW,233,2.0,10.0,93,0.01,,,0.07,weatherlink.com 1.10,2013-02-21 17:39:00,
2013-02-21 11:54:00,71.2,69.0,29.75,WSW,237,3.0,9.0,94,0.03,,,0.09,weatherlink.com 1.10,2013-02-21 17:54:00,
2013-02-21 12:09:00,71.2,70.0,29.75,WSW,248,3.0,10.0,95,0.11,,,0.17,weatherlink.com 1.10,2013-02-21 18:09:00,
2013-02-21 12:24:00,70.9,70.0,29.75,SSE,157,0.0,6.0,95,0.12,,,0.18,weatherlink.com 1.10,2013-02-21 18:24:00,
2013-02-21 12:39:00,71.1,70.0,29.73,SSE,162,4.0,11.0,95,0.11,,,0.18,weatherlink.com 1.10,2013-02-21 18:39:00,
2013-02-21 12:54:00,72.0,70.0,29.73,WNW,288,9.0,12.0,94,0.07,,,0.18,weatherlink.com 1.10,2013-02-21 18:54:00,
2013-02-21 13:09:00,72.2,70.0,29.73,WNW,297,4.0,8.0,93,0.00,,,0.18,weatherlink.com 1.10,2013-02-21 19:09:00,
2013-02-21 13:24:00,72.0,70.0,29.72,WSW,251,2.0,11.0,92,0.00,,,0.18,weatherlink.com 1.10,2013-02-21 19:24:00,
2013-02-21 13:39:00,72.1,70.0,29.71,SSW,211,2.0,9.0,93,0.00,,,0.18,weatherlink.com 1.10,2013-02-21 19:39:00,
2013-02-21 13:54:00,72.2,70.0,29.71,WSW,251,2.0,5.0,94,0.01,,,0.19,weatherlink.com 1.10,2013-02-21 19:54:00,
2013-02-21 14:09:00,72.4,71.0,29.70,West,275,1.0,3.0,94,0.01,,,0.19,weatherlink.com 1.10,2013-02-21 20:09:00,
2013-02-21 14:24:00,72.9,71.0,29.70,West,275,1.0,7.0,93,0.01,,,0.19,weatherlink.com 1.10,2013-02-21 20:24:00,
2013-02-21 14:39:00,74.0,71.0,29.70,WNW,295,0.0,6.0,91,0.01,,,0.19,weatherlink.com 1.10,2013-02-21 20:39:00,
2013-02-21 14:54:00,74.9,72.0,29.69,WNW,285,1.0,6.0,89,0.00,,,0.19,weatherlink.com 1.10,2013-02-21 20:54:00,
2013-02-21 15:09:00,74.8,71.0,29.70,WNW,285,2.0,6.0,88,0.00,,,0.19,weatherlink.com 1.10,2013-02-21 21:09:00,
2013-02-21 15:24:00,75.1,71.0,29.69,West,260,1.0,5.0,88,0.00,,,0.19,weatherlink.com 1.10,2013-02-21 21:24:00,
2013-02-21 15:39:00,75.3,71.0,29.70,SSW,206,0.0,4.0,87,0.00,,,0.19,weatherlink.com 1.10,2013-02-21 21:39:00,
2013-02-21 15:54:00,75.3,71.0,29.70,South,187,5.0,5.0,86,0.00,,,0.19,weatherlink.com 1.10,2013-02-21 21:54:00,
2013-02-21 16:09:00,75.0,71.0,29.70,WNW,299,1.0,3.0,86,0.00,,,0.19,weatherlink.com 1.10,2013-02-21 22:09:00,
2013-02-21 16:24:00,72.5,62.0,29.71,NE,36,0.0,3.0,69,0.00,,,0.19,weatherlink.com 1.10,2013-02-21 22:24:00,
2013-02-21 16:39:00,71.9,62.0,29.72,East,96,0.0,1.0,70,0.00,,,0.19,weatherlink.com 1.10,2013-02-21 22:39:00,
2013-02-21 16:54:00,71.8,60.0,29.72,NNE,15,1.0,2.0,67,0.00,,,0.19,weatherlink.com 1.10,2013-02-21 22:54:00,
2013-02-21 17:09:00,71.5,60.0,29.73,NNE,28,0.0,2.0,67,0.00,,,0.19,weatherlink.com 1.10,2013-02-21 23:09:00,
2013-02-21 17:24:00,71.1,59.0,29.73,NNE,20,0.0,1.0,66,0.00,,,0.19,weatherlink.com 1.10,2013-02-21 23:24:00,
2013-02-21 17:39:00,70.6,60.0,29.74,NNE,12,0.0,0.0,68,0.00,,,0.19,weatherlink.com 1.10,2013-02-21 23:39:00,
2013-02-21 17:54:00,70.6,57.0,29.75,NE,43,0.0,5.0,63,0.00,,,0.19,weatherlink.com 1.10,2013-02-21 23:54:00,
2013-02-21 18:09:00,70.2,56.0,29.76,North,8,0.0,2.0,62,0.00,,,0.19,weatherlink.com 1.10,2013-02-22 00:09:00,
2013-02-21 18:24:00,69.9,55.0,29.77,NNE,12,0.0,4.0,60,0.00,,,0.19,weatherlink.com 1.10,2013-02-22 00:24:00,
2013-02-21 18:39:00,69.6,53.0,29.79,North,5,0.0,2.0,55,0.00,,,0.19,weatherlink.com 1.10,2013-02-22 00:39:00,
2013-02-21 18:54:00,69.4,53.0,29.79,ENE,63,2.0,3.0,56,0.00,,,0.19,weatherlink.com 1.10,2013-02-22 00:54:00,
2013-02-21 19:09:00,68.9,52.0,29.80,SE,128,0.0,0.0,56,0.00,,,0.19,weatherlink.com 1.10,2013-02-22 01:09:00,
2013-02-21 19:24:00,68.3,52.0,29.80,SE,128,0.0,0.0,56,0.00,,,0.19,weatherlink.com 1.10,2013-02-22 01:24:00,
2013-02-21 19:39:00,67.5,52.0,29.81,SE,128,0.0,0.0,59,0.00,,,0.19,weatherlink.com 1.10,2013-02-22 01:39:00,
2013-02-21 19:54:00,66.5,52.0,29.82,SE,128,0.0,0.0,61,0.00,,,0.19,weatherlink.com 1.10,2013-02-22 01:54:00,
2013-02-21 20:13:00,65.7,53.0,29.82,SE,128,0.0,0.0,63,0.00,,,0.19,weatherlink.com 1.10,2013-02-22 02:13:00,
2013-02-21 20:24:00,64.7,54.0,29.83,SE,128,0.0,0.0,69,0.00,,,0.19,weatherlink.com 1.10,2013-02-22 02:24:00,
2013-02-21 20:39:00,63.2,54.0,29.83,SE,128,0.0,0.0,72,0.00,,,0.19,weatherlink.com 1.10,2013-02-22 02:39:00,
2013-02-21 20:55:00,61.9,54.0,29.83,SE,128,0.0,0.0,76,0.00,,,0.19,weatherlink.com 1.10,2013-02-22 02:55:00,
2013-02-21 21:10:00,60.9,54.0,29.83,SE,128,0.0,0.0,77,0.00,,,0.19,weatherlink.com 1.10,2013-02-22 03:10:00,
2013-02-21 21:25:00,59.8,54.0,29.84,SE,128,0.0,0.0,82,0.00,,,0.19,weatherlink.com 1.10,2013-02-22 03:25:00,
2013-02-21 21:40:00,59.4,55.0,29.84,SE,128,0.0,0.0,85,0.00,,,0.19,weatherlink.com 1.10,2013-02-22 03:40:00,
2013-02-21 21:55:00,59.5,55.0,29.85,SE,128,0.0,0.0,85,0.00,,,0.19,weatherlink.com 1.10,2013-02-22 03:55:00,
2013-02-21 22:10:00,59.9,55.0,29.86,South,176,0.0,1.0,84,0.00,,,0.19,weatherlink.com 1.10,2013-02-22 04:10:00,
2013-02-21 22:25:00,59.9,56.0,29.86,South,175,0.0,0.0,86,0.00,,,0.19,weatherlink.com 1.10,2013-02-22 04:25:00,
2013-02-21 22:40:00,59.4,55.0,29.86,South,176,0.0,0.0,85,0.00,,,0.19,weatherlink.com 1.10,2013-02-22 04:40:00,
2013-02-21 22:55:00,58.7,55.0,29.86,South,176,0.0,0.0,87,0.00,,,0.19,weatherlink.com 1.10,2013-02-22 04:55:00,
2013-02-21 23:10:00,58.2,54.0,29.86,South,175,0.0,0.0,87,0.00,,,0.19,weatherlink.com 1.10,2013-02-22 05:10:00,
2013-02-21 23:25:00,57.7,55.0,29.85,South,175,0.0,0.0,89,0.00,,,0.19,weatherlink.com 1.10,2013-02-22 05:25:00,
2013-02-21 23:40:00,57.8,54.0,29.85,South,175,0.0,0.0,87,0.00,,,0.19,weatherlink.com 1.10,2013-02-22 05:40:00,
2013-02-21 23:55:00,57.7,54.0,29.86,South,176,0.0,0.0,86,0.00,,,0.19,weatherlink.com 1.10,2013-02-22 05:55:00,